Location: Newark
(37.9800°N, 91.3000°W)
Time: 13:01:38
(UTC+00:00)

NOAA 19 - Pass Details

Date: 14 December 2019
Orbit: 840 x 862 km, 99.2° (Epoch: 17 January)

Event Time Altitude Azimuth Distance (km) Brightness Sun altitude
Rises 12:22:57 0° 7° (N) 3,437 8.2 -9.7°
Reaches altitude 10° 12:25:25 10° 1° (N) 2,494 7.4 -9.3°
Maximum altitude 12:30:40 47° 290° (WNW) 1,122 5.5 -8.3°
Drops below altitude 10° 12:35:53 10° 218° (SW) 2,466 7.5 -7.4°
Sets 12:38:18 0° 212° (SSW) 3,395 8.3 -7.0°
